Regional Weather Roundup
Issued by NWS

Home | Current Version | Previous Version | Text Only | Print | Product List | Glossary Off
Versions: 1 2 3 4 5 6 7 8 9 10 11 12 13 14 15 16 17 18 19 20 21 22 23 24 25 26 27 28 29 30 31 32 33 34 35 36 37 38 39 40 41 42 43 44 45 46 47 48 49 50

000
ASUS43 KLOT 290610
RWRIL

ILLINOIS REGIONAL WEATHER ROUNDUP
NATIONAL WEATHER SERVICE CHICAGO/ROMEOVILLE IL
1200 AM CST MON DEC 29 2014

NOTE: "FAIR" INDICATES FEW OR NO CLOUDS BELOW 12,000 FEET WITH NO
SIGNIFICANT WEATHER AND/OR OBSTRUCTIONS TO VISIBILITY.

* THESE STATIONS ARE NOT UNDER NWS QUALITY CONTROL. THEY ALSO MAY NOT
  REPORT WEATHER SUCH AS PRECIPITATION OR FOG.

ILZ001-002-007-009-015-016-024-290700-
NORTHWEST ILLINOIS

CITY           SKY/WX    TMP DP  RH WIND       PRES   REMARKS
MOLINE         PTCLDY    22  19  89 CALM      30.26R
6HR MIN TEMP:  21; 6HR MAX TEMP:  27;

STERLING*      MOCLDY    25  19  80 CALM      30.26R
SAVANNA*       CLOUDY    24  20  85 N3        30.27R
$$

ILZ003-004-008-010-011-017-018-290700-
NORTH CENTRAL ILLINOIS

CITY           SKY/WX    TMP DP  RH WIND       PRES   REMARKS
ROCKFORD       MOCLDY    23  18  81 CALM      30.27S
6HR MIN TEMP:  21; 6HR MAX TEMP:  28;

FREEPORT*      MOCLDY    23  19  84 CALM      30.27S
ROCHELLE*      MOCLDY    23  19  83 CALM      30.25F
DE KALB*       MOCLDY    23  17  77 N3        30.24S
PERU*          MOCLDY    27  20  77 N3        30.26S
$$

ILZ005-006-012>014-019>023-290700-
NORTHEAST ILLINOIS

CITY           SKY/WX    TMP DP  RH WIND       PRES   REMARKS
CHICAGO-OHARE  PTCLDY    25  19  78 NW5       30.24S WCI  19
6HR MIN TEMP:  23; 6HR MAX TEMP:  30;

CHICAGO-MIDWAY PTCLDY    27  18  69 NW5       30.25S WCI  22
6HR MIN TEMP:  26; 6HR MAX TEMP:  31;

AURORA         PTCLDY    24  17  74 CALM      30.25S
6HR MIN TEMP:  21; 6HR MAX TEMP:  28;

LANSING*       CLEAR     22  18  86 CALM      30.25S
JOLIET*        PTCLDY    20  18  92 CALM      30.26S
WAUKEGAN       CLOUDY    26  19  74 N5        30.24S WCI  20
6HR MIN TEMP:  19; 6HR MAX TEMP:  27;

DUPAGE AIRPORT PTCLDY    23  17  78 CALM      30.24S
6HR MIN TEMP:  21; 6HR MAX TEMP:  27;

KANKAKEE*      CLEAR     25  21  85 NW3       30.26S
WHEELING       PTCLDY    24  18  77 NW3       30.26F
6HR MIN TEMP:  22; 6HR MAX TEMP:  31;

MORRIS*        PTCLDY    22  19  89 CALM      30.25S
ROMEOVILLE*    PTCLDY    24  19  80 CALM      30.25S
NORTHERLY ISL    N/A     30  19  63 W5          N/A  WCI  25
$$

LMZ740>746-290700-
SOUTHERN LAKE MICHIGAN

STATION/POSITION SKY/WX   TEMP    WIND        PRES    VSBY  WAVE
                          AIR SEA DIR/SP/G                  HT/PER
                          (F)     (DEG/KT/KT) (MB)    (MI)  (FT/S)
WAUKEGAN HARBOR            28     340/  6/  9   N/A
HARRISON CRIB              30     290/  6/  7   N/A
BURNHAM HARBOR             30     260/  2/  8   N/A
CALUMET HARBOR             28     260/  3/  5 1023.1R
MICHIGAN CITY              33     260/ 13/ 15   N/A
$$

ILZ025>027-034>036-040-047-049-050-058-095>099-290700-
WEST-CENTRAL ILLINOIS

CITY           SKY/WX    TMP DP  RH WIND       PRES   REMARKS
QUINCY         CLEAR     26  22  84 SE5       30.23R WCI  20
GALESBURG*     PTCLDY    20  19  96 CALM      30.24S
MACOMB*        CLEAR     23  21  93 CALM      30.26S
JACKSONVILLE*  CLEAR     26  23  91 CALM      30.24S
PITTSFIELD*    CLEAR     26  24  90 CALM      30.25S
$$

ILZ028>032-037-038-041>044-048-051>054-059>061-290700-
CENTRAL ILLINOIS

CITY           SKY/WX    TMP DP  RH WIND       PRES   REMARKS
PONTIAC        PTCLDY    23  19  86 CALM      30.26S
BLOOMINGTON    CLEAR     25  21  84 CALM      30.25S
DECATUR        PTCLDY    24  20  84 CALM      30.25R
PEORIA         CLEAR     23  18  81 CALM      30.26R
6HR MIN TEMP:  23; 6HR MAX TEMP:  30;

LACON*         MOCLDY    21  18  86 CALM      30.26R
LINCOLN*       CLEAR     24  22  93 CALM      30.27S
SPRINGFIELD    CLEAR     23  20  88 CALM      30.25F
6HR MIN TEMP:  22; 6HR MAX TEMP:  30;

TAYLORVILLE    CLEAR     25  23  93 CALM      30.25S FOG
$$

ILZ033-039-045-046-055>057-062-063-290700-
EAST-CENTRAL ILLINOIS

CITY           SKY/WX    TMP DP  RH WIND       PRES   REMARKS
CHAMPAIGN      MOCLDY    23  19  85 CALM      30.24S
DANVILLE*      PTCLDY    23  22  96 CALM      30.22S
RANTOUL*       PTCLDY    24  20  87 CALM      30.25S
MATTOON        PTCLDY    22  20  92 N3        30.23S
PARIS*         PTCLDY    22  21  97 CALM      30.25S
$$

ILZ079-100>102-290700-
SOUTHWEST ILLINOIS

CITY           SKY/WX    TMP DP  RH WIND       PRES   REMARKS
ALTON          CLEAR     26  25  96 CALM      30.25S FOG
BELLEVILLE     CLEAR     21  21 100 CALM      30.24S
CAHOKIA*       CLEAR     26  24  92 CALM      30.24S
SPARTA*        CLEAR     26  24  93 CALM      30.24S
$$

ILZ064>066-069>071-074>076-080>082-084>086-088>090-092>094-290700-
SOUTH-CENTRAL ILLINOIS

CITY           SKY/WX    TMP DP  RH WIND       PRES   REMARKS
CARBONDALE     CLOUDY    31  24  75 VRB7      30.24R WCI  24
6HR MIN TEMP:  31; 6HR MAX TEMP:  33;

CAIRO*         CLOUDY    35  29  79 NE6       30.23S WCI  30
EFFINGHAM*     CLEAR     24  21  90 CALM      30.25S FOG
MARION         CLOUDY    32  27  80 CALM      30.24S
MT. VERNON     CLEAR     25  18  74 CALM      30.24R
CENTRALIA*     CLEAR     26  25  94 CALM      30.24R FOG
SALEM*         CLEAR     27  26  93 CALM      30.24R FOG
METROPOLIS*    CLOUDY    33  30  88 NE5       30.22S WCI  28
$$

ILZ067-068-072-073-078-083-087-091-290700-
SOUTHEAST ILLINOIS

CITY           SKY/WX    TMP DP  RH WIND       PRES   REMARKS
LAWRENCEVILLE  CLEAR     26  23  88 NE5       30.25S WCI  20
FLORA*         CLEAR     26  25  97 CALM      30.25R
FAIRFIELD*     CLEAR     25  24  96 CALM      30.24R
HARRISBURG*    PTCLDY    30  27  90 NE3       30.25S
ROBINSON*      CLEAR     24  23  97 N3        30.25S
CARMI*         CLEAR     28  28  98 N3        30.23S
$$

ABBREVIATIONS USED IN REMARKS
   TC - TEMPERATURE IN CELSIUS
  WCI - WIND CHILL INDEX
   HX - HEAT INDEX
  VSB - VISIBILITY
$$




USA.gov is the U.S. government's official web portal to all federal, state and local government web resources and services.